Regional Weather Roundup
Issued by NWS Grand Forks, ND

Home | Current Version | Previous Version | Text Only | Print | Product List | Glossary On
Versions: 1 2 3 4 5 6 7 8 9 10 11 12 13 14 15 16 17 18 19 20 21 22 23 24 25 26 27 28 29 30 31 32 33 34 35 36 37 38 39 40 41 42 43 44 45 46 47 48 49 50
000
ASUS43 KFGF 131910
RWRFGF
PRAIRIE TO PINES  WEATHER ROUNDUP
NATIONAL WEATHER SERVICE EASTERN NORTH DAKOTA/GRAND FORKS ND
200 PM CDT SAT APR 13 2024

 **SATELLITE DATA USED TO AUGMENT SKY COVER AT AUTOMATED STATIONS**
 *****  WEATHER ACROSS EASTERN NORTH DAKOTA  *****

CITY           SKY/WX    TMP DP  RH WIND       PRES   REMARKS
GRAND FORKS    PTSUNNY   70  38  31 VRB5      29.63F
GRAND FRKS AFB CLOUDY    70  35  27 CALM      29.61F
GRAND FRKS NWS   N/A     69  43  38 MISG      29.59F
DEVILS LAKE    CLOUDY    59  38  45 W7G22     29.69R
FARGO          FAIR      72  40  31 VRB5      29.64F
WAHPETON ARPT  FAIR      70  41  35 VRB5      29.63F
$$

 ***** WEATHER ACROSS CENTRAL AND WESTERN NORTH DAKOTA  *****

CITY           SKY/WX    TMP DP  RH WIND       PRES   REMARKS
BISMARCK       FAIR      77  35  21 NE6       29.66F
MINOT          FAIR      75  33  21 CALM      29.67S
JAMESTOWN      FAIR      74  40  29 NE10      29.66S
MINOT AFB      PTSUNNY   74  34  23 NW17G24   29.65R
GARRISON         N/A     74  35  24 VRB3      29.69S
WILLISTON      NOT AVBL
DICKINSON      FAIR      73  34  23 CALM      29.72R
HETTINGER      FAIR      79  35  20 NW12G21   29.73F
$$

 *****  OTHER AIRPORT OBSERVATIONS IN OUR AREA  *****

CITY           SKY/WX    TMP DP  RH WIND       PRES   REMARKS
WALHALLA       FAIR      64  39  39 N12       29.64S
GRAFTON AIRPOR FAIR      63  41  45 SW3       29.66S
VALLEY CITY AR HAZE      70  41  35 NE8       29.67S VSB 1
CANDO          PTSUNNY   70  36  28 W9        29.67F
CAVALIER APRT  FAIR      70  39  32 CALM      29.62F
GWINNER        SUNNY     73  39  29 VRB7      29.64F
SHEYENNE NWR     N/A     77  40  26 W6        29.95S
ROLLA          CLOUDY    66  37  34 NW13      29.67S
 ***** THE ABOVE OBSERVATIONS ARE NON NWS ARE NOT QUALITY
       CONTROLLED AND MAY MIS-REPORT RAIN FOR SNOW...
$$

  *****  WEATHER ACROSS NORTHERN MINNESOTA  *****

CITY           SKY/WX    TMP DP  RH WIND       PRES   REMARKS
FLAG ISLAND    FAIR      45  30  57 SE5       29.64F
WARROAD        FAIR      61  43  51 SW16G22   29.63F
ROSEAU         FAIR      61  39  44 SW12      29.64S
HALLOCK        CLOUDY    61  37  41 S6        29.64F
THF RVR FALLS  FAIR      65  37  35 SW7       29.67S
BAUDETTE       PTSUNNY   62  37  39 S14       29.63F
WASKISH        FAIR      64  34  32 W5        29.70S
CROOKSTON      FAIR      70  34  26 CALM      29.65F
STEPHEN NDAWN    N/A     63  37  39 VRB2        N/A
GREENBUSH NDAW   N/A     59  37  44 MISG        N/A
$$
  *****  WEATHER ACROSS CENTRAL AND WEST MINNESOTA  *****

CITY           SKY/WX    TMP DP  RH WIND       PRES   REMARKS
FOSSTON        FAIR      70  34  26 W5        29.67F
BEMIDJI        FAIR      70  35  27 W7        29.67F
PARK RAPIDS    FAIR      71  37  28 S14       29.66F
ELBOW LAKE     FAIR      76  36  23 S14       29.66F
WADENA         FAIR      72  39  30 S12       29.66F
DETROIT LAKES  FAIR      70  36  28 S12       29.66F
MOORHEAD       FAIR      72  39  30 SW5       29.65F
FERGUS FALLS   FAIR      73  41  31 S12       29.65F
MORRIS MN      FAIR      79  41  25 S15G21    29.62F
STAPLES        FAIR      73  36  25 S17G23    29.67F
$$
  *****  WEATHER ELSEWHERE ACROSS MINNESOTA  *****

CITY           SKY/WX    TMP DP  RH WIND       PRES   REMARKS
DULUTH         FAIR      60  32  34 SE13      29.73F
INTRNTL FALLS  LGT RAIN  53  37  54 S7G22     29.69F
ELY            FAIR      57  27  30 S12G18    29.73S
CLOQUET        FAIR      66  27  22 S14G26    29.71F
WHEATON        FAIR      77  43  29 S7        29.64F
BRAINERD       FAIR      72  36  26 S26G41    29.68F
HIBBING        FAIR      65  24  21 S12G25    29.68F
ALEXANDRIA     FAIR      75  38  26 S15       29.68F
SAINT CLOUD    FAIR      77  39  25 S21G35    29.70F
MINNEAPOLIS    FAIR      74  36  25 S24G31    29.76F
$$

  *****  WEATHER ACROSS SOUTH DAKOTA  *****

CITY           SKY/WX    TMP DP  RH WIND       PRES   REMARKS
SIOUX FALLS    FAIR      81  47  30 S20G25    29.72F
BROOKINGS      FAIR      78  44  29 S20G25    29.68F
WATERTOWN      FAIR      77  42  28 S20       29.66F
HURON          FAIR      86  41  20 SW16      29.64F
SISSETON         N/A     79  41  25 W10       29.62F
ABERDEEN       FAIR      79  41  25 S9        29.63F
MITCHELL       FAIR      82  45  27 SW13      29.68F
PIERRE         FAIR      86  42  21 NW16      29.66F
MOBRIDGE       FAIR      82  42  24 NW7       29.64F
RAPID CITY     FAIR      85  35  16 NE8       29.75S
$$

  *****  SOME WEATHER IN NEARBY STATES *****

CITY           SKY/WX    TMP DP  RH WIND       PRES   REMARKS
GLASGOW MT     FAIR      70  35  27 NW16G23   29.80S
GREAT FALLS MT FAIR      70  38  31 W17G32    29.86F
CHEYENNE WY    FAIR      72  22  15 N13G25    30.00F
SCOTTSBLUFF NE FAIR      79  33  19 W7        29.87F
OMAHA NE       PTSUNNY   77  44  30 S15       29.83F
DES MOINES IA  FAIR      83  48  29 S18G26    29.85F
DAVENPORT IA   FAIR      73  35  25 S18G24    29.99F
CHICAGO IL     FAIR      66  34  30 W10G20    30.02F
EAU CLAIRE WI  FAIR      70  33  25 S13G22    29.82F
LA CROSSE WI   SUNNY     72  30  21 S18       29.88F
$$

  *****  SOME NATIONAL WEATHER *****

CITY           SKY/WX    TMP DP  RH WIND       PRES   REMARKS
LA GUARDIA NY  CLOUDY    53  32  44 W30G47    29.66R
RALEIGH NC     FAIR      70  36  28 W16G23    30.02F
ATLANTA GA     FAIR      75  35  23 NW17G26   30.20F
NEW ORLEANS LA FAIR      78  52  40 S8        30.26F
OKLAHOMA CITY  FAIR      80  48  32 S30G39    30.01F
ALBUQUERQUE NM FAIR      71  14  11 W10G25    30.15F
SALT LAKE CITY FAIR      73  22  14 S14G25    29.98F
LOS ANGELES CA CLOUDY    63  46  54 SE17      30.06S
BOISE ID       FAIR      68  47  46 SE8       29.85F
SEATTLE WA     CLOUDY    52  43  71 N10       29.94F
$$

*** WEATHER ACROSS MANITOBA...SASKATCHEWAN AND ONTARIO ***
                ***ONTARIO***

CITY           SKY/WX    TMP DP  RH WIND       PRES   REMARKS
GERALDTON      NOT AVBL
THUNDER BAY    LGT RAIN  48  28  46 CALM      29.84F
SIOUX LOOKOUT  CLOUDY    41  36  81 SE6       29.77F
TORONTO        PTSUNNY   50  34  53 NW29G37   29.80R
BIG TROUT LK   SUNNY     32  25  74 S8        29.84F WCI  25
PICKLE LAKE    MOSUNNY   41  23  48 CALM      29.80F
DRYDEN         SUNNY     48  30  49 SE12G23   29.70F
KENORA         PTSUNNY   52  34  50 S14       29.66F
$$
                *** MANITOBA***

CITY           SKY/WX    TMP DP  RH WIND       PRES   REMARKS
BRANDON        PTSUNNY   64  39  39 W8        29.62F
DAUPHIN        SUNNY     59  41  51 E6        29.62F
ISLAND LAKE    SUNNY     45  32  61 SE9       29.76F
PILOT MOUND      N/A     63  34  34 NW8         N/A
THE PAS        PTSUNNY   48  34  57 N6        29.64S
THOMPSON       FLURRIES  34  32  93 E3        29.75S
WINNIPEG       MOSUNNY   63  37  39 W14G20    29.62S
LYNN LAKE      CLOUDY    36  32  87 SE13      29.63F
CHURCHILL      CLOUDY    21  19  93 SE13      29.95F WCI   9
GILLAM         PTSUNNY   32  23  69 NE9       29.85F WCI  24
$$
                ***SASKATCHEWAN***

CITY           SKY/WX    TMP DP  RH WIND       PRES   REMARKS
ESTEVAN        PTSUNNY   70  30  23 W26G40    29.68S
KINDERSLEY     MOSUNNY   57  28  33 NW14      29.78S
LLOYDMINSTER   PTSUNNY   50  23  34 NW21G33   29.79R
PRINCE ALBERT  PTSUNNY   57  25  28 N17G25    29.71R
REGINA         MOSUNNY   64  30  27 N12G21    29.67S
YORKTON        CLOUDY    61  34  36 N10       29.66S
N. BATTLEFORD  SUNNY     57  23  26 NW9G21    29.77S
LA RONGE       PTSUNNY   55  28  35 W13G22    29.64S
SASKATOON      PTSUNNY   59  32  36 NW13G18   29.74R
SWIFT CURRENT  SUNNY     59  28  31 N9G24     29.78R
$$
NOTE: THESE ARE AUTOMATED STATIONS WITH LIMITED QUALITY CONTROL
      "FAIR" INDICATES FEW OR NO CLOUDS BELOW 12,000 FEET WITH NO
      SIGNIFICANT WEATHER AND/OR OBSTRUCTIONS TO VISIBILITY.
      SKY/WX - SKY CONDITION AND SIGNIFICANT WEATHER.
      TMP - AIR TEMPERATURE.    DP   - DEWPOINT TEMPERATURE.
      RH  - RELATIVE HUMIDITY.  PRES - PRESSURE.
      HX  - HEAT INDEX.         WCI  - WIND CHILL INDEX.
$



USA.gov is the U.S. government's official web portal to all federal, state and local government web resources and services.